Weather History for Hagerstown, MD

Change the Weather History Date:

Monday, October 28, 2013

  Actual Average Record
Temperature  
Mean Temperature 46 °F -  
Max Temperature 59 °F 58 °F 80 °F (1996)
Min Temperature 33 °F 40 °F 33 °F (1999)
Degree Days  
Heating Degree Days 19    
Month to date heating degree days 243  
Moisture  
Dew Point 32 °F    
Average Humidity 61    
Maximum Humidity 82    
Minimum Humidity 39    
Precipitation  
Precipitation 0.00 in - - ()
Month to date precipitation 5.30  
Year to date precipitation 27.66  
Sea Level Pressure  
Sea Level Pressure 30.26 in    
Wind  
Wind Speed 1 mph (East)    
Max Wind Speed 6 mph    
Max Gust Speed 8 mph    
Visibility 10 miles    
Events      
Averages and records for this station are not official NWS values.
T = Trace of Precipitation, MM = Missing Value Source: NWS Daily Summary

Daily Weather History Graph

Daily Weather History Graph

Search for Another Location

Airport:

Trip Planner

Search our weather history database for the weather conditions in past years. The results will help you decide how hot, cold, wet, or windy it might be!

Date:

Astronomy

Oct. 28, 2013 Rise Set
Actual Time 7:35 AM EDT 6:13 PM EDT
Civil Twilight 7:07 AM EDT 6:41 PM EDT
Nautical Twilight 6:35 AM EDT 7:12 PM EDT
Astronomical Twilight 6:04 AM EDT 7:44 PM EDT
Moon 1:27 AM EDT (10/28) 2:53 PM EDT (10/28)
Length of Visible Light 11h 33m
Length of Day
10h 38m
Waning Crescent, 34% of the Moon is Illuminated
Oct 28
Waning Crescent
Nov 3
New
Nov 10
First Quarter
Nov 17
Full
Nov 25
Last Quarter

Hourly Weather History & Observations

Time (EDT) Temp. Windchill Dew Point Humidity Pressure Visibility Wind Dir Wind Speed Gust Speed Precip Events Conditions
12:53 AM 41.0 °F - 28.9 °F 62% 30.18 in 10.0 mi Calm Calm - N/A   Clear
1:53 AM 39.9 °F - 28.9 °F 65% 30.18 in 10.0 mi Calm Calm - N/A   Clear
2:53 AM 39.0 °F - 28.9 °F 67% 30.18 in 10.0 mi Calm Calm - N/A   Clear
3:53 AM 37.9 °F - 28.9 °F 70% 30.19 in 10.0 mi Calm Calm - N/A   Clear
4:53 AM 33.1 °F - 28.9 °F 85% 30.20 in 10.0 mi Calm Calm - N/A   Clear
5:53 AM 35.1 °F - 28.9 °F 78% 30.22 in 10.0 mi Calm Calm - N/A   Clear
6:53 AM 36.0 °F - 28.9 °F 76% 30.24 in 10.0 mi Calm Calm - N/A   Clear
7:53 AM 35.1 °F - 28.9 °F 78% 30.26 in 10.0 mi Calm Calm - N/A   Clear
8:53 AM 41.0 °F 38.0 °F 30.0 °F 65% 30.28 in 10.0 mi East 4.6 mph - N/A   Clear
9:53 AM 46.9 °F - 33.1 °F 59% 30.30 in 10.0 mi Calm Calm - N/A   Clear
10:53 AM 48.9 °F - 34.0 °F 56% 30.31 in 10.0 mi SSW 5.8 mph - N/A   Clear
11:53 AM 52.0 °F - 35.1 °F 53% 30.30 in 10.0 mi Calm Calm - N/A   Clear
12:53 PM 55.9 °F - 37.0 °F 49% 30.28 in 10.0 mi Calm Calm - N/A   Clear
1:53 PM 57.0 °F - 35.1 °F 44% 30.26 in 10.0 mi Variable 3.5 mph - N/A   Clear
2:53 PM 57.9 °F - 32.0 °F 37% 30.25 in 10.0 mi Calm Calm - N/A   Clear
3:53 PM 57.9 °F - 33.1 °F 39% 30.25 in 10.0 mi Calm Calm - N/A   Clear
4:53 PM 57.9 °F - 33.1 °F 39% 30.26 in 10.0 mi Calm Calm - N/A   Clear
5:53 PM 57.0 °F - 34.0 °F 42% 30.26 in 10.0 mi Calm Calm - N/A   Clear
6:53 PM 54.0 °F - 34.0 °F 47% 30.28 in 10.0 mi SE 4.6 mph - N/A   Clear
7:53 PM 51.1 °F - 34.0 °F 52% 30.30 in 10.0 mi East 3.5 mph - N/A   Clear
8:53 PM 50.0 °F - 34.0 °F 54% 30.30 in 10.0 mi East 3.5 mph - N/A   Clear
9:53 PM 48.9 °F - 34.0 °F 56% 30.31 in 10.0 mi Calm Calm - N/A   Clear
10:53 PM 46.0 °F 43.1 °F 34.0 °F 63% 30.32 in 10.0 mi ENE 5.8 mph - N/A   Clear
11:53 PM 45.0 °F 41.2 °F 34.0 °F 65% 30.32 in 10.0 mi ENE 6.9 mph - N/A   Clear